CST,Max TemperatureF,Mean TemperatureF,Min TemperatureF,Max Dew PointF,MeanDew PointF,Min DewpointF,Max Humidity, Mean Humidity, Min Humidity, Max Sea Level PressureIn, Mean Sea Level PressureIn, Min Sea Level PressureIn, Max VisibilityMiles, Mean VisibilityMiles, Min VisibilityMiles, Max Wind SpeedMPH, Mean Wind SpeedMPH, Max Gust SpeedMPH,PrecipitationIn, CloudCover, Events, WindDirDegrees
2013-11-1,51,42,33,37,35,30,93,80,54,29.85,29.61,29.41,10,9,5,13,7,21,0.00,5,,291
2013-11-2,48,38,28,34,30,27,93,77,50,30.08,30.01,29.84,10,10,4,12,5,,0.00,0,,286
2013-11-3,55,42,28,34,31,27,93,65,41,30.09,29.98,29.87,10,10,7,24,7,31,0.00,1,,125
2013-11-4,48,39,30,45,36,28,93,78,58,30.12,29.90,29.81,10,10,7,17,11,25,0.24,5,Rain,167
2013-11-5,39,32,24,30,28,23,100,82,56,30.23,30.15,30.06,10,8,2,9,2,,0.00,4,Snow,326
2013-11-6,41,32,24,30,25,21,93,76,49,30.14,30.08,30.03,10,9,2,12,5,17,0.15,5,Snow,277
2013-11-7,39,29,19,28,23,16,93,82,52,30.22,30.17,30.13,10,8,2,10,1,,0.00,3,,258
2013-11-8,42,32,21,37,27,19,100,81,57,30.16,29.89,29.58,10,8,2,15,4,21,0.04,3,Rain-Snow,124
2013-11-9,42,40,37,37,32,27,93,73,61,30.19,29.89,29.60,10,10,10,23,12,33,0.00,8,,265
2013-11-10,42,35,28,30,28,25,86,71,57,30.31,30.21,30.10,10,10,10,16,8,24,0.00,5,,239
2013-11-11,35,25,15,28,11,7,75,62,46,30.70,30.45,30.13,10,10,10,17,12,25,0.00,4,,316
2013-11-12,30,19,8,16,9,5,85,64,37,30.74,30.63,30.39,10,10,10,12,7,,0.00,1,,229
2013-11-13,51,36,21,34,24,14,87,65,43,30.38,30.02,29.84,10,10,10,17,8,26,0.00,0,,186
2013-11-14,53,42,28,37,34,27,93,78,51,29.84,29.79,29.73,10,10,7,9,2,,0.00,1,,222
2013-11-15,55,40,24,39,33,23,100,76,47,29.82,29.74,29.60,10,8,0,13,4,20,0.00,1,Fog,158
2013-11-16,46,42,39,45,41,36,100,88,71,29.60,29.40,29.25,10,6,0,15,8,22,0.12,6,Fog-Rain-Thunderstorm,129
2013-11-17,44,37,30,43,35,23,100,84,75,29.80,29.47,29.27,10,8,1,25,10,38,0.00,8,,263
2013-11-18,33,25,17,21,19,14,93,73,56,30.24,30.08,29.81,10,10,7,25,15,34,0.00,5,,287
2013-11-19,46,30,15,30,24,14,93,70,46,30.24,30.04,29.87,10,10,10,21,7,29,0.00,0,,125
2013-11-20,46,42,37,34,30,25,87,60,46,30.03,29.91,29.85,10,10,5,20,13,28,0.00,7,,144
2013-11-21,37,30,23,36,23,12,93,75,59,30.52,30.28,30.03,10,8,2,17,7,26,0.00,7,Snow,319
2013-11-22,33,22,8,18,8,0,85,64,25,30.63,30.51,30.43,10,10,4,18,8,26,0.00,2,Snow,272
2013-11-23,17,9,1,3,0,-4,85,69,38,30.81,30.73,30.64,10,10,10,14,8,20,0.00,1,,290
2013-11-24,33,17,1,18,9,-2,85,62,41,30.66,30.26,29.89,10,10,10,22,8,29,0.00,0,,170
2013-11-25,39,34,28,27,22,16,86,65,49,30.08,29.94,29.84,10,10,10,20,12,30,0.00,6,,257
2013-11-26,28,16,5,19,6,1,85,61,46,30.37,30.23,30.07,10,10,10,26,12,33,0.00,4,Snow,301
2013-11-27,24,12,0,10,5,-6,92,69,50,30.37,30.21,30.04,10,10,10,13,2,,0.00,3,,133
2013-11-28,26,14,3,14,9,1,92,67,51,30.48,30.28,30.04,10,10,7,14,4,20,0.00,5,Snow,298
2013-11-29,32,16,1,21,12,-2,92,71,55,30.49,30.33,30.11,10,10,5,17,4,23,0.00,2,,141
2013-11-30,39,28,17,25,21,16,93,76,56,30.16,30.06,30.00,10,9,5,9,4,,0.00,0,,291